This is the latest recevied weather packets stored in our database for station/object W7TRD. If no packets are shown the sender has not sent any weather packets the latest 10 day(s).
| Time | Temp. | Humidity | Pressure | Rain* | Wind** | Luminosity | Snow |
|---|---|---|---|---|---|---|---|
| 1788137360 | 21.67° C | 55% | 1017.7 hPa | 0 mm | - | 37 W/m² | - |
| 1788137057 | 21.67° C | 55% | 1017.7 hPa | 0 mm | - | 37 W/m² | - |
| 1788136752 | 21.67° C | 54% | 1017.9 hPa | 0 mm | - | 38 W/m² | - |
| 1788136448 | 21.67° C | 54% | 1017.9 hPa | 0 mm | - | 39 W/m² | - |
| 1788136148 | 21.67° C | 54% | 1018 hPa | 0 mm | - | 40 W/m² | - |
| 1788135847 | 22.22° C | 54% | 1017.8 hPa | 0 mm | - | 40 W/m² | - |
| 1788135542 | 21.67° C | 54% | 1017.9 hPa | 0 mm | - | 41 W/m² | - |
| 1788135237 | 22.22° C | 54% | 1017.9 hPa | 0 mm | - | 42 W/m² | - |
| 1788134935 | 21.67° C | 54% | 1018.1 hPa | 0 mm | - | 43 W/m² | - |
| 1788134630 | 21.67° C | 53% | 1018 hPa | 0 mm | - | 44 W/m² | - |
| 1788134328 | 21.67° C | 56% | 1018 hPa | 0 mm | - | 44 W/m² | - |
| 1788134023 | 21.67° C | 54% | 1018 hPa | 0 mm | - | 45 W/m² | - |
| 1788133719 | 21.67° C | 54% | 1018 hPa | 0 mm | - | 48 W/m² | - |
| 1788133414 | 22.22° C | 54% | 1018.3 hPa | 0 mm | - | 49 W/m² | - |
| 1788133110 | 21.67° C | 54% | 1018.2 hPa | 0 mm | - | 49 W/m² | - |
| 1788132805 | 21.67° C | 54% | 1018.4 hPa | 0 mm | - | 49 W/m² | - |
| 1788132501 | 21.67° C | 54% | 1018.2 hPa | 0 mm | - | 47 W/m² | - |
| 1788132196 | 21.67° C | 55% | 1018.5 hPa | 0 mm | - | 50 W/m² | - |
| 1788131892 | 21.67° C | 54% | 1018.6 hPa | 0 mm | - | 49 W/m² | - |
| 1788131593 | 21.67° C | 54% | 1018.5 hPa | 0 mm | - | 49 W/m² | - |
| 1788131287 | 21.67° C | 55% | 1018.5 hPa | 0 mm | - | 50 W/m² | - |
| 1788130983 | 21.67° C | 55% | 1018.5 hPa | 0 mm | - | 51 W/m² | - |
| 1788130682 | 21.67° C | 54% | 1018.8 hPa | 0 mm | - | 53 W/m² | - |
| 1788130377 | 21.67° C | 56% | 1018.9 hPa | 0 mm | - | 55 W/m² | - |
| 1788130076 | 21.67° C | 54% | 1019 hPa | 0 mm | - | 55 W/m² | - |
* Rain latest hour (hover to see other rain measurements)
** Current wind speed in m/s (hover to see current wind gust speed)